Regional Weather Roundup
Issued by NWS

Home | Current Version | Previous Version | Text Only | Print | Product List | Glossary Off
Versions: 1 2 3 4 5 6 7 8 9 10 11 12 13 14 15 16 17 18 19 20 21 22 23 24 25 26 27 28 29 30 31 32 33 34 35 36 37 38 39 40 41 42 43 44 45 46 47 48 49 50

000
ASUS43 KMKX 191621
RWRWI

WISCONSIN REGIONAL WEATHER ROUNDUP
NATIONAL WEATHER SERVICE MILWAUKEE/SULLIVAN WI
1100 AM CDT THU OCT 19 2017

NOTE: "FAIR" INDICATES FEW OR NO CLOUDS BELOW 12,000 FEET WITH NO
SIGNIFICANT WEATHER AND/OR OBSTRUCTIONS TO VISIBILITY.

WIZ001-002-006>008-014>016-023>028-191700-
NORTHWEST WISCONSIN

CITY           SKY/WX    TMP DP  RH WIND       PRES   REMARKS
SUPERIOR ARPT  SUNNY     55  33  44 SW5       30.02S
ASHLAND        SUNNY     58  28  32 SW9       30.04R
HAYWARD        CLOUDY    55  29  36 SW7       30.06S
SIREN          SUNNY     59  30  32 SW7       30.06R
CUMBERLAND     MOSUNNY   54  34  47 S3        30.08R
RICE LAKE      MOSUNNY   55  35  48 SE5       30.09S
CHETEK         MOSUNNY   55  37  51 CALM      30.09R
LADYSMITH      CLOUDY    54  34  46 CALM      30.11R
EAU CLAIRE     CLOUDY    56  34  43 S6        30.11R
MENOMONIE      CLOUDY    58  36  43 S6        30.11R
NEW RICHMOND   CLOUDY    56  35  45 S5        30.09R
OSCEOLA        CLOUDY    57  33  40 S8        30.11R
$$

WIZ003>005-009-010-017-018-191700-
NORTH CENTRAL WISCONSIN

CITY           SKY/WX    TMP DP  RH WIND       PRES   REMARKS
MANITOWISH WTR CLOUDY    53  28  37 W8        30.06R
ARBOR VITAE    CLOUDY    57  29  35 W7        30.06S
WOODRUFF       CLOUDY    57  29  35 W7        30.06S
RHINELANDER    CLOUDY    55  27  34 W14       30.09R
EAGLE RIVER    PTSUNNY   53  22  29 W7        30.05S
LAND O LAKES   PTSUNNY   55  19  24 W10G16    30.06R
PHILLIPS       SUNNY     54  30  40 SW6       30.08S
TOMAHAWK       CLOUDY    56  24  28 W9        30.09S
MEDFORD        CLOUDY    54  31  40 SW6       30.11R
MERRILL        CLOUDY    56  29  35 W9        30.11R
$$

WIZ029-030-035-036-043>047-191700-
CENTRAL WISCONSIN

CITY           SKY/WX    TMP DP  RH WIND       PRES   REMARKS
WAUSAU         CLOUDY    56  31  38 VRB3      30.10R
MOSINEE        MOSUNNY   55  28  35 W6        30.13R
MARSHFIELD     CLOUDY    56  31  38 SW6       30.12R
STEVENS POINT  CLOUDY    56  27  32 W8        30.13S
WAUPACA        CLOUDY    63  26  25 W5        30.14R
WAUTOMA        CLOUDY    59  33  37 W7        30.15R
WISC RAPIDS    CLOUDY    57  34  41 SW6       30.15R
CAMP DOUGLAS   PTSUNNY   61  30  31 CALM      30.14S
$$

WIZ011>013-019>022-031-037>040-048>050-191700-
NORTHEAST WISCONSIN

CITY           SKY/WX    TMP DP  RH WIND       PRES   REMARKS
ANTIGO         CLOUDY    55  30  38 W12       30.10R
SHAWANO        PTSUNNY   60  30  33 W7        30.11R
OCONTO         SUNNY     57  31  36 W9        30.09S
STURGEON BAY   SUNNY     57  31  37 W14       30.09R
GREEN BAY      CLOUDY    59  32  36 W8        30.12R
MANITOWOC      PTSUNNY   59  32  36 W10       30.13R
APPLETON       MOSUNNY   57  27  30 W8        30.12R
CLINTONVILLE   MOSUNNY   59  27  29 W7        30.12R
OSHKOSH        SUNNY     59  31  34 W6        30.14R
$$

WIZ032>034-041-042-053>061-191700-
SOUTHWEST WISCONSIN

CITY           SKY/WX    TMP DP  RH WIND       PRES   REMARKS
LA CROSSE      CLOUDY    58  37  45 S7        30.13F
SPARTA         CLOUDY    56  38  51 CALM      30.14F
VIROQUA        CLOUDY    60  33  36 CALM      30.15S
BOSCOBEL       CLOUDY    61  40  45 W3        30.17S
PRAIRIE DU CHI SUNNY     58  40  50 CALM      30.17S
PLATTEVILLE    SUNNY     62  33  33 E5        30.19R
$$

WIZ056-057-062-063-064-067-068-191700-
SOUTH CENTRAL WISCONSIN

CITY           SKY/WX    TMP DP  RH WIND       PRES   REMARKS
REEDSBURG      CLOUDY    60  35  39 CALM      30.16S
BARABOO/DELLS  CLOUDY    60  30  32 CALM      30.16S
LONE ROCK      CLOUDY    57  44  62 CALM      30.17S
MINERAL POINT  CLOUDY    63  30  29 CALM      30.18R
MADISON        CLOUDY    62  31  31 CALM      30.17R
MIDDLETON      CLOUDY    63  30  28 NW3       30.18R
WATERTOWN      SUNNY     61  32  32 NW3       30.16R
MONROE         SUNNY     63  27  25 E3        30.18R
JANESVILLE     MOSUNNY   64  37  36 CALM      30.17R
$$

WIZ051-052-058>065-066-070>072-191700-
SOUTHEAST WISCONSIN

CITY           SKY/WX    TMP DP  RH WIND       PRES   REMARKS
MILWAUKEE      PTSUNNY   64  25  22 W3        30.17R
WAUKESHA       SUNNY     59  27  29 NW7       30.18R
MILWAUKEE/TIMM SUNNY     61  21  21 CALM      30.17R
RACINE         SUNNY     63  24  22 NW5       30.19R
BURLINGTON     SUNNY     62  29  28 N3        30.18R
KENOSHA        SUNNY     64  25  22 N6        30.18R
FOND DU LAC    MOSUNNY   60  29  30 SW9       30.16R
SHEBOYGAN      SUNNY     60  32  34 W7        30.14R
WEST BEND      CLOUDY    59  27  29 W9        30.16R
JUNEAU         SUNNY     59  31  34 W3        30.18R
$$

LSZ147-162-191700-
LAKE SUPERIOR

STATION/POSITION TIME  TEMP    WIND        PRES    WAVE
                       AIR SEA DIR/SP/G            HT/PER
                 (UTC) (F)     (DEG/KT/KT) (MB)    (FT/S)
W MID LAKE BUOY  1550   52 52              1014.4R   6/ 7
DEVILS ISLAND    1600   52     230/ 20/ 24 1016.3R
SAXON HARBOR     1530   56     210/  3/ 12 1016.6S
$$

LMZ867-665-643>646-191700-
LAKE MICHIGAN

STATION/POSITION TIME  TEMP    WIND        PRES    WAVE
                       AIR SEA DIR/SP/G            HT/PER
                 (UTC) (F)     (DEG/KT/KT) (MB)    (FT/S)
S GREEN BAY BUOY 1530   54 58  240/ 16/ 17 1018.6R
N MID LAKE BUOY  1450   56 58  250/ 21/ 23 1016.7R   4/ 4
NORTHPORT PIER   1540   57     260/  6/ 13 1017.3R
KEWAUNEE LAKESHO 1554   57     280/  8/ 12 1018.7R
SHEBOYGAN LAKESH 1600   59     270/  9/ 11 1020.5R
PORT WASHINGTON  1540   62     300/  2/ 10 1021.7R
ATWATER BUOY     1509   57 53  290/  2/  2 1021.5R
MILWAUKEE LAKESH 1600   61     320/  4/  6   N/A
S MID LAKE BUOY  1550   58 61  310/  8/ 12 1021.9R   2/ 5
KENOSHA   LAKESH 1600   60      30/  2/  4 1021.7
$$

TC  - TEMPERATURE IN CELSIUS
VSB - VISIBILITY IN STATUTE MILES
WCI - WIND CHILL INDEX
HX  - HEAT INDEX





USA.gov is the U.S. government's official web portal to all federal, state and local government web resources and services.